TimeMST,TemperatureF,Dew PointF,Humidity,Sea Level PressureIn,VisibilityMPH,Wind Direction,Wind SpeedMPH,Gust SpeedMPH,PrecipitationIn,Events,Conditions,WindDirDegrees,DateUTC
12:15 AM,27.5,20.3,74,30.37,10.0,NE,6.9,-,N/A,,Clear,40,2012-11-14 07:15:00
12:35 AM,28.9,21.0,72,30.38,10.0,NE,5.8,-,N/A,,Clear,40,2012-11-14 07:35:00
12:55 AM,29.8,21.6,71,30.37,10.0,East,5.8,-,N/A,,Clear,100,2012-11-14 07:55:00
1:15 AM,28.8,20.5,71,30.38,10.0,Calm,Calm,-,N/A,,Clear,0,2012-11-14 08:15:00
1:35 AM,27.0,20.3,76,30.38,10.0,Calm,Calm,-,N/A,,Clear,0,2012-11-14 08:35:00
1:55 AM,29.1,20.8,71,30.38,10.0,East,4.6,-,N/A,,Clear,80,2012-11-14 08:55:00
2:15 AM,25.2,18.7,76,30.38,10.0,Calm,Calm,-,N/A,,Clear,0,2012-11-14 09:15:00
2:35 AM,24.6,19.0,79,30.37,10.0,Calm,Calm,-,N/A,,Clear,0,2012-11-14 09:35:00
2:55 AM,26.2,19.9,77,30.36,10.0,NE,4.6,-,N/A,,Clear,50,2012-11-14 09:55:00
3:15 AM,26.6,19.6,75,30.36,10.0,East,3.5,-,N/A,,Clear,80,2012-11-14 10:15:00
3:35 AM,26.1,19.4,76,30.36,10.0,Calm,Calm,-,N/A,,Clear,0,2012-11-14 10:35:00
3:55 AM,27.1,20.3,75,30.36,10.0,Calm,Calm,-,N/A,,Clear,0,2012-11-14 10:55:00
4:15 AM,26.2,19.9,77,30.36,10.0,Calm,Calm,-,N/A,,Clear,0,2012-11-14 11:15:00
4:35 AM,27.1,20.3,75,30.36,10.0,Calm,Calm,-,N/A,,Clear,0,2012-11-14 11:35:00
4:55 AM,28.0,20.3,73,30.38,10.0,Calm,Calm,-,N/A,,Clear,0,2012-11-14 11:55:00
5:15 AM,25.9,19.4,76,30.37,10.0,ESE,3.5,-,N/A,,Clear,110,2012-11-14 12:15:00
5:35 AM,22.6,18.0,82,30.36,10.0,ENE,3.5,-,N/A,,Clear,60,2012-11-14 12:35:00
5:55 AM,23.4,18.5,82,30.38,10.0,Calm,Calm,-,N/A,,Clear,0,2012-11-14 12:55:00
6:15 AM,21.7,18.1,86,30.38,10.0,Calm,Calm,-,N/A,,Clear,0,2012-11-14 13:15:00
6:35 AM,22.5,18.3,84,30.38,10.0,WNW,3.5,-,N/A,,Clear,300,2012-11-14 13:35:00
6:55 AM,23.4,19.0,84,30.39,10.0,Calm,Calm,-,N/A,,Clear,0,2012-11-14 13:55:00
7:15 AM,23.9,19.2,82,30.39,10.0,Calm,Calm,-,N/A,,Clear,0,2012-11-14 14:15:00
7:35 AM,25.5,19.9,79,30.40,10.0,Calm,Calm,-,N/A,,Clear,0,2012-11-14 14:35:00
7:55 AM,26.1,19.8,77,30.40,10.0,Calm,Calm,-,N/A,,Clear,0,2012-11-14 14:55:00
8:15 AM,28.2,20.1,72,30.41,10.0,East,3.5,-,N/A,,Clear,100,2012-11-14 15:15:00
8:35 AM,29.7,20.5,69,30.41,10.0,Calm,Calm,-,N/A,,Clear,0,2012-11-14 15:35:00
8:55 AM,31.5,21.2,66,30.40,10.0,NE,3.5,-,N/A,,Clear,40,2012-11-14 15:55:00
9:15 AM,32.9,21.6,63,30.39,10.0,East,4.6,-,N/A,,Clear,100,2012-11-14 16:15:00
9:35 AM,33.6,22.1,63,30.39,10.0,East,3.5,-,N/A,,Clear,90,2012-11-14 16:35:00
9:55 AM,35.4,21.7,58,30.38,10.0,Calm,Calm,-,N/A,,Clear,0,2012-11-14 16:55:00
10:15 AM,36.7,21.6,54,30.38,10.0,Calm,Calm,-,N/A,,Clear,0,2012-11-14 17:15:00
10:35 AM,38.5,21.4,50,30.38,10.0,Calm,Calm,-,N/A,,Clear,0,2012-11-14 17:35:00
10:55 AM,41.0,21.9,47,30.37,10.0,Calm,Calm,-,N/A,,Clear,0,2012-11-14 17:55:00
11:15 AM,42.1,21.0,43,30.35,10.0,Calm,Calm,-,N/A,,Clear,0,2012-11-14 18:15:00
11:35 AM,44.4,20.7,39,30.34,10.0,Calm,Calm,-,N/A,,Clear,0,2012-11-14 18:35:00
11:55 AM,45.7,20.1,36,30.32,10.0,East,3.5,-,N/A,,Clear,80,2012-11-14 18:55:00
12:15 PM,47.5,19.6,33,30.31,10.0,Calm,Calm,-,N/A,,Clear,0,2012-11-14 19:15:00
12:35 PM,48.4,19.4,32,30.30,10.0,Calm,Calm,-,N/A,,Clear,0,2012-11-14 19:35:00
12:55 PM,50.4,20.1,30,30.28,10.0,Calm,Calm,-,N/A,,Clear,0,2012-11-14 19:55:00
1:15 PM,50.4,19.4,30,30.27,10.0,Calm,Calm,-,N/A,,Clear,0,2012-11-14 20:15:00
1:35 PM,52.5,19.8,28,30.26,10.0,Calm,Calm,-,N/A,,Clear,0,2012-11-14 20:35:00
1:55 PM,52.7,19.2,27,30.25,10.0,Calm,Calm,-,N/A,,Clear,0,2012-11-14 20:55:00
2:15 PM,53.2,18.7,26,30.24,10.0,Calm,Calm,-,N/A,,Clear,0,2012-11-14 21:15:00
2:35 PM,54.0,19.0,25,30.23,10.0,Calm,Calm,-,N/A,,Clear,0,2012-11-14 21:35:00
2:55 PM,54.1,18.9,25,30.23,10.0,West,4.6,-,N/A,,Clear,280,2012-11-14 21:55:00
3:15 PM,54.5,19.4,25,30.23,10.0,SW,6.9,-,N/A,,Clear,230,2012-11-14 22:15:00
3:35 PM,54.5,20.1,26,30.23,10.0,WSW,8.1,-,N/A,,Clear,250,2012-11-14 22:35:00
3:55 PM,53.4,24.8,33,30.23,10.0,West,9.2,-,N/A,,Clear,260,2012-11-14 22:55:00
4:15 PM,52.7,25.3,35,30.23,10.0,West,8.1,-,N/A,,Clear,260,2012-11-14 23:15:00
4:35 PM,51.1,26.2,38,30.23,10.0,WSW,9.2,-,N/A,,Clear,250,2012-11-14 23:35:00
4:55 PM,49.8,27.0,41,30.23,10.0,West,5.8,-,N/A,,Clear,270,2012-11-14 23:55:00
5:15 PM,48.2,27.5,45,30.22,10.0,WSW,4.6,-,N/A,,Clear,240,2012-11-15 00:15:00
5:35 PM,45.1,28.4,52,30.23,10.0,SSW,4.6,-,N/A,,Clear,210,2012-11-15 00:35:00
5:55 PM,43.9,28.0,54,30.23,10.0,Calm,Calm,-,N/A,,Clear,0,2012-11-15 00:55:00
6:15 PM,43.7,27.5,53,30.23,10.0,Calm,Calm,-,N/A,,Clear,0,2012-11-15 01:15:00
6:35 PM,42.1,27.3,56,30.24,10.0,NE,4.6,-,N/A,,Clear,50,2012-11-15 01:35:00
6:55 PM,40.6,26.4,57,30.24,10.0,NE,5.8,-,N/A,,Clear,50,2012-11-15 01:55:00
7:55 PM,40.1,26.2,58,30.25,10.0,NE,5.8,-,N/A,,Clear,40,2012-11-15 02:55:00
8:15 PM,39.6,25.9,58,30.25,10.0,NNE,5.8,-,N/A,,Clear,30,2012-11-15 03:15:00
8:35 PM,39.6,25.7,58,30.25,10.0,NNE,5.8,-,N/A,,Clear,30,2012-11-15 03:35:00
8:55 PM,40.1,25.3,56,30.26,10.0,NE,5.8,-,N/A,,Clear,50,2012-11-15 03:55:00
9:15 PM,39.0,25.5,58,30.26,10.0,ENE,5.8,-,N/A,,Clear,60,2012-11-15 04:15:00
9:35 PM,37.0,25.3,63,30.27,10.0,North,3.5,-,N/A,,Clear,10,2012-11-15 04:35:00
9:55 PM,36.1,25.7,66,30.27,10.0,Calm,Calm,-,N/A,,Clear,0,2012-11-15 04:55:00
10:15 PM,37.9,25.5,61,30.27,10.0,Calm,Calm,-,N/A,,Clear,0,2012-11-15 05:15:00
10:35 PM,37.4,25.7,63,30.27,10.0,Calm,Calm,-,N/A,,Clear,0,2012-11-15 05:35:00
10:55 PM,36.7,25.3,64,30.27,10.0,Calm,Calm,-,N/A,,Clear,0,2012-11-15 05:55:00
11:15 PM,34.3,25.5,70,30.28,10.0,Calm,Calm,-,N/A,,Clear,0,2012-11-15 06:15:00
11:35 PM,34.2,25.9,72,30.28,10.0,North,3.5,-,N/A,,Clear,10,2012-11-15 06:35:00
11:55 PM,32.5,24.6,73,30.28,10.0,ENE,4.6,-,N/A,,Clear,60,2012-11-15 06:55:00